owner,sensor,date,latitude,longitude,vertical_datum,wind_speed,wind_to_direction,wind_speed_of_gust,qcFlag 
ADCP,ioos:station:wmo:42369:1,2011-05-01T00:00:00Z,27.2070,-90.2830,60.4,8.2,127.0,99.0,'11111222,11111222,11144222' 
ADCP,ioos:station:wmo:42369:1,2011-05-01T00:20:00Z,27.2070,-90.2830,60.4,8.1,127.0,99.0,'11111222,11111222,11144222' 
ADCP,ioos:station:wmo:42369:1,2011-05-01T00:40:00Z,27.2070,-90.2830,60.4,8.3,131.0,99.0,'11111222,11111222,11144222' 
ADCP,ioos:station:wmo:42369:1,2011-05-01T01:00:00Z,27.2070,-90.2830,60.4,7.9,132.0,99.0,'11111222,11111222,11144222' 
ADCP,ioos:station:wmo:42369:1,2011-05-01T01:20:00Z,27.2070,-90.2830,60.4,7.6,132.0,99.0,'11111222,11111222,11144222' 
ADCP,ioos:station:wmo:42369:1,2011-05-01T01:40:00Z,27.2070,-90.2830,60.4,8.0,132.0,99.0,'11111222,11111222,11144222' 
ADCP,ioos:station:wmo:42369:1,2011-05-01T02:00:00Z,27.2070,-90.2830,60.4,9.0,130.0,99.0,'11111222,11111222,11144222' 
ADCP,ioos:station:wmo:42369:1,2011-05-01T02:20:00Z,27.2070,-90.2830,60.4,8.1,125.0,99.0,'11111222,11111222,11144222' 
ADCP,ioos:station:wmo:42369:1,2011-05-01T02:40:00Z,27.2070,-90.2830,60.4,6.7,115.0,99.0,'11111222,11111222,11144222' 
ADCP,ioos:station:wmo:42369:1,2011-05-01T03:00:00Z,27.2070,-90.2830,60.4,6.8,111.0,99.0,'11111222,11111222,11144222' 
ADCP,ioos:station:wmo:42369:1,2011-05-01T03:20:00Z,27.2070,-90.2830,60.4,6.8,116.0,99.0,'11111222,11111222,11144222' 
ADCP,ioos:station:wmo:42369:1,2011-05-01T03:40:00Z,27.2070,-90.2830,60.4,7.0,112.0,99.0,'11111222,11111222,11144222' 
ADCP,ioos:station:wmo:42369:1,2011-05-01T04:00:00Z,27.2070,-90.2830,60.4,7.2,111.0,99.0,'11111222,11111222,11144222' 
ADCP,ioos:station:wmo:42369:1,2011-05-01T04:20:00Z,27.2070,-90.2830,60.4,7.4,116.0,99.0,'11111222,11111222,11144222' 
ADCP,ioos:station:wmo:42369:1,2011-05-01T04:40:00Z,27.2070,-90.2830,60.4,8.0,117.0,99.0,'11111222,11111222,11144222' 
ADCP,ioos:station:wmo:42369:1,2011-05-01T05:00:00Z,27.2070,-90.2830,60.4,8.6,121.0,99.0,'11111222,11111222,11144222' 
ADCP,ioos:station:wmo:42369:1,2011-05-01T05:20:00Z,27.2070,-90.2830,60.4,8.4,122.0,99.0,'11111222,11111222,11144222' 
ADCP,ioos:station:wmo:42369:1,2011-05-01T05:40:00Z,27.2070,-90.2830,60.4,9.6,127.0,99.0,'11111222,11111222,11144222' 
ADCP,ioos:station:wmo:42369:1,2011-05-01T06:00:00Z,27.2070,-90.2830,60.4,10.4,129.0,99.0,'11111222,11111222,11144222' 
ADCP,ioos:station:wmo:42369:1,2011-05-01T06:20:00Z,27.2070,-90.2830,60.4,10.1,128.0,99.0,'11111222,11111222,11144222' 
ADCP,ioos:station:wmo:42369:1,2011-05-01T06:40:00Z,27.2070,-90.2830,60.4,9.1,126.0,99.0,'11111222,11111222,11144222' 
ADCP,ioos:station:wmo:42369:1,2011-05-01T07:00:00Z,27.2070,-90.2830,60.4,9.9,129.0,99.0,'11111222,11111222,11144222' 
ADCP,ioos:station:wmo:42369:1,2011-05-01T07:20:00Z,27.2070,-90.2830,60.4,10.0,130.0,99.0,'11111222,11111222,11144222' 
ADCP,ioos:station:wmo:42369:1,2011-05-01T07:40:00Z,27.2070,-90.2830,60.4,8.1,129.0,99.0,'11111222,11111222,11144222' 
ADCP,ioos:station:wmo:42369:1,2011-05-01T08:00:00Z,27.2070,-90.2830,60.4,8.8,129.0,99.0,'11111222,11111222,11144222' 
ADCP,ioos:station:wmo:42369:1,2011-05-01T08:20:00Z,27.2070,-90.2830,60.4,10.7,129.0,99.0,'11111222,11111222,11144222' 
ADCP,ioos:station:wmo:42369:1,2011-05-01T08:40:00Z,27.2070,-90.2830,60.4,10.5,128.0,99.0,'11111222,11111222,11144222' 
ADCP,ioos:station:wmo:42369:1,2011-05-01T09:00:00Z,27.2070,-90.2830,60.4,10.4,126.0,99.0,'11111222,11111222,11144222' 
ADCP,ioos:station:wmo:42369:1,2011-05-01T09:20:00Z,27.2070,-90.2830,60.4,9.9,124.0,99.0,'11111222,11111222,11144222' 
ADCP,ioos:station:wmo:42369:1,2011-05-01T09:40:00Z,27.2070,-90.2830,60.4,10.6,126.0,99.0,'11111222,11111222,11144222' 
ADCP,ioos:station:wmo:42369:1,2011-05-01T10:00:00Z,27.2070,-90.2830,60.4,11.2,129.0,99.0,'11111222,11111222,11144222' 
ADCP,ioos:station:wmo:42369:1,2011-05-01T10:20:00Z,27.2070,-90.2830,60.4,10.5,129.0,99.0,'11111222,11111222,11144222' 
ADCP,ioos:station:wmo:42369:1,2011-05-01T10:40:00Z,27.2070,-90.2830,60.4,8.7,132.0,99.0,'11111222,11111222,11144222' 
ADCP,ioos:station:wmo:42369:1,2011-05-01T11:00:00Z,27.2070,-90.2830,60.4,6.1,139.0,99.0,'11111222,11111222,11144222' 
ADCP,ioos:station:wmo:42369:1,2011-05-01T11:20:00Z,27.2070,-90.2830,60.4,4.3,146.0,99.0,'11111222,11111222,11144222' 
ADCP,ioos:station:wmo:42369:1,2011-05-01T11:40:00Z,27.2070,-90.2830,60.4,4.7,144.0,99.0,'11111222,11111222,11144222' 
ADCP,ioos:station:wmo:42369:1,2011-05-01T12:00:00Z,27.2070,-90.2830,60.4,3.7,150.0,99.0,'11111222,11111222,11144222' 
ADCP,ioos:station:wmo:42369:1,2011-05-01T12:20:00Z,27.2070,-90.2830,60.4,3.3,153.0,99.0,'11111222,11111222,11144222' 
ADCP,ioos:station:wmo:42369:1,2011-05-01T12:40:00Z,27.2070,-90.2830,60.4,3.4,154.0,99.0,'11111222,11111222,11144222' 
ADCP,ioos:station:wmo:42369:1,2011-05-01T13:00:00Z,27.2070,-90.2830,60.4,3.6,151.0,99.0,'11111222,11111222,11144222' 
ADCP,ioos:station:wmo:42369:1,2011-05-01T13:20:00Z,27.2070,-90.2830,60.4,3.4,152.0,99.0,'11111222,11111222,11144222' 
ADCP,ioos:station:wmo:42369:1,2011-05-01T13:40:00Z,27.2070,-90.2830,60.4,3.1,154.0,99.0,'11111222,11111222,11144222' 
ADCP,ioos:station:wmo:42369:1,2011-05-01T14:00:00Z,27.2070,-90.2830,60.4,4.0,155.0,99.0,'11111222,11111222,11144222' 
ADCP,ioos:station:wmo:42369:1,2011-05-01T14:20:00Z,27.2070,-90.2830,60.4,4.2,156.0,99.0,'11111222,11111222,11144222' 
ADCP,ioos:station:wmo:42369:1,2011-05-01T14:40:00Z,27.2070,-90.2830,60.4,4.3,158.0,99.0,'11111222,11111222,11144222' 
ADCP,ioos:station:wmo:42369:1,2011-05-01T15:00:00Z,27.2070,-90.2830,60.4,3.9,156.0,99.0,'11111222,11111222,11144222' 
ADCP,ioos:station:wmo:42369:1,2011-05-01T15:20:00Z,27.2070,-90.2830,60.4,4.4,157.0,99.0,'11111222,11111222,11144222' 
ADCP,ioos:station:wmo:42369:1,2011-05-01T15:40:00Z,27.2070,-90.2830,60.4,4.8,158.0,99.0,'11111222,11111222,11144222' 
ADCP,ioos:station:wmo:42369:1,2011-05-01T16:00:00Z,27.2070,-90.2830,60.4,6.0,162.0,99.0,'11111222,11111222,11144222' 
ADCP,ioos:station:wmo:42369:1,2011-05-01T16:20:00Z,27.2070,-90.2830,60.4,5.1,162.0,99.0,'11111222,11111222,11144222' 
ADCP,ioos:station:wmo:42369:1,2011-05-01T16:40:00Z,27.2070,-90.2830,60.4,5.1,162.0,99.0,'11111222,11111222,11144222' 
ADCP,ioos:station:wmo:42369:1,2011-05-01T17:00:00Z,27.2070,-90.2830,60.4,5.1,160.0,99.0,'11111222,11111222,11144222' 
ADCP,ioos:station:wmo:42369:1,2011-05-01T17:20:00Z,27.2070,-90.2830,60.4,4.2,162.0,99.0,'11111222,11111222,11144222' 
ADCP,ioos:station:wmo:42369:1,2011-05-01T17:40:00Z,27.2070,-90.2830,60.4,3.7,159.0,99.0,'11111222,11111222,11144222' 
ADCP,ioos:station:wmo:42369:1,2011-05-01T18:00:00Z,27.2070,-90.2830,60.4,4.9,162.0,99.0,'11111222,11111222,11144222' 
ADCP,ioos:station:wmo:42369:1,2011-05-01T18:20:00Z,27.2070,-90.2830,60.4,4.9,163.0,99.0,'11111222,11111222,11144222' 
ADCP,ioos:station:wmo:42369:1,2011-05-01T18:40:00Z,27.2070,-90.2830,60.4,4.1,160.0,99.0,'11111222,11111222,11144222' 
ADCP,ioos:station:wmo:42369:1,2011-05-01T19:00:00Z,27.2070,-90.2830,60.4,3.6,158.0,99.0,'11111222,11111222,11144222' 
ADCP,ioos:station:wmo:42369:1,2011-05-01T19:20:00Z,27.2070,-90.2830,60.4,2.8,152.0,99.0,'11111222,11111222,11144222' 
ADCP,ioos:station:wmo:42369:1,2011-05-01T19:40:00Z,27.2070,-90.2830,60.4,2.5,150.0,99.0,'11111222,11111222,11144222' 
ADCP,ioos:station:wmo:42369:1,2011-05-01T20:00:00Z,27.2070,-90.2830,60.4,2.5,143.0,99.0,'11111222,11111222,11144222' 
ADCP,ioos:station:wmo:42369:1,2011-05-01T20:20:00Z,27.2070,-90.2830,60.4,2.4,149.0,99.0,'11111222,11111222,11144222' 
ADCP,ioos:station:wmo:42369:1,2011-05-01T20:40:00Z,27.2070,-90.2830,60.4,2.6,150.0,99.0,'11111222,11111222,11144222' 
ADCP,ioos:station:wmo:42369:1,2011-05-01T21:00:00Z,27.2070,-90.2830,60.4,3.8,140.0,99.0,'11111222,11111222,11144222' 
ADCP,ioos:station:wmo:42369:1,2011-05-01T21:20:00Z,27.2070,-90.2830,60.4,4.9,129.0,99.0,'11111222,11111222,11144222' 
ADCP,ioos:station:wmo:42369:1,2011-05-01T21:40:00Z,27.2070,-90.2830,60.4,4.6,122.0,99.0,'11111222,11111222,11144222' 
ADCP,ioos:station:wmo:42369:1,2011-05-01T22:00:00Z,27.2070,-90.2830,60.4,4.8,127.0,99.0,'11111222,11111222,11144222' 
ADCP,ioos:station:wmo:42369:1,2011-05-01T22:20:00Z,27.2070,-90.2830,60.4,4.6,129.0,99.0,'11111222,11111222,11144222' 
ADCP,ioos:station:wmo:42369:1,2011-05-01T22:40:00Z,27.2070,-90.2830,60.4,5.2,124.0,99.0,'11111222,11111222,11144222' 
ADCP,ioos:station:wmo:42369:1,2011-05-01T23:20:00Z,27.2070,-90.2830,60.4,4.2,121.0,99.0,'11111222,11111222,11144222' 
ADCP,ioos:station:wmo:42369:1,2011-05-01T23:40:00Z,27.2070,-90.2830,60.4,4.1,121.0,99.0,'11111222,11111222,11144222' 
ADCP,ioos:station:wmo:42369:1,2011-05-02T00:00:00Z,27.2070,-90.2830,60.4,4.0,112.0,99.0,'11111222,11111222,11144222' 
ADCP,ioos:station:wmo:42369:1,2011-05-02T00:20:00Z,27.2070,-90.2830,60.4,4.4,108.0,99.0,'11111222,11111222,11144222' 
ADCP,ioos:station:wmo:42369:1,2011-05-02T00:40:00Z,27.2070,-90.2830,60.4,5.2,106.0,99.0,'11111222,11111222,11144222' 
ADCP,ioos:station:wmo:42369:1,2011-05-02T01:00:00Z,27.2070,-90.2830,60.4,5.6,104.0,99.0,'11111222,11111222,11144222' 
ADCP,ioos:station:wmo:42369:1,2011-05-02T01:20:00Z,27.2070,-90.2830,60.4,6.1,104.0,99.0,'11111222,11111222,11144222' 
ADCP,ioos:station:wmo:42369:1,2011-05-02T01:40:00Z,27.2070,-90.2830,60.4,6.6,104.0,99.0,'11111222,11111222,11144222' 
ADCP,ioos:station:wmo:42369:1,2011-05-02T02:00:00Z,27.2070,-90.2830,60.4,6.9,106.0,99.0,'11111222,11111222,11144222' 
ADCP,ioos:station:wmo:42369:1,2011-05-02T02:20:00Z,27.2070,-90.2830,60.4,7.2,103.0,99.0,'11111222,11111222,11144222' 
ADCP,ioos:station:wmo:42369:1,2011-05-02T02:40:00Z,27.2070,-90.2830,60.4,7.5,103.0,99.0,'11111222,11111222,11144222' 
ADCP,ioos:station:wmo:42369:1,2011-05-02T03:00:00Z,27.2070,-90.2830,60.4,7.4,106.0,99.0,'11111222,11111222,11144222' 
ADCP,ioos:station:wmo:42369:1,2011-05-02T03:20:00Z,27.2070,-90.2830,60.4,7.4,107.0,99.0,'11111222,11111222,11144222' 
ADCP,ioos:station:wmo:42369:1,2011-05-02T03:40:00Z,27.2070,-90.2830,60.4,7.7,107.0,99.0,'11111222,11111222,11144222' 
ADCP,ioos:station:wmo:42369:1,2011-05-02T04:00:00Z,27.2070,-90.2830,60.4,7.2,111.0,99.0,'11111222,11111222,11144222' 
ADCP,ioos:station:wmo:42369:1,2011-05-02T04:20:00Z,27.2070,-90.2830,60.4,7.5,112.0,99.0,'11111222,11111222,11144222' 
ADCP,ioos:station:wmo:42369:1,2011-05-02T04:40:00Z,27.2070,-90.2830,60.4,7.7,113.0,99.0,'11111222,11111222,11144222' 
ADCP,ioos:station:wmo:42369:1,2011-05-02T05:00:00Z,27.2070,-90.2830,60.4,8.6,121.0,99.0,'11111222,11111222,11144222' 
ADCP,ioos:station:wmo:42369:1,2011-05-02T05:20:00Z,27.2070,-90.2830,60.4,9.4,122.0,99.0,'11111222,11111222,11144222' 
ADCP,ioos:station:wmo:42369:1,2011-05-02T05:40:00Z,27.2070,-90.2830,60.4,11.3,127.0,99.0,'11111222,11111222,11144222' 
ADCP,ioos:station:wmo:42369:1,2011-05-02T06:00:00Z,27.2070,-90.2830,60.4,11.1,127.0,99.0,'11111222,11111222,11144222' 
ADCP,ioos:station:wmo:42369:1,2011-05-02T06:20:00Z,27.2070,-90.2830,60.4,11.0,128.0,99.0,'11111222,11111222,11144222' 
ADCP,ioos:station:wmo:42369:1,2011-05-02T06:40:00Z,27.2070,-90.2830,60.4,11.1,128.0,99.0,'11111222,11111222,11144222' 
ADCP,ioos:station:wmo:42369:1,2011-05-02T07:00:00Z,27.2070,-90.2830,60.4,10.4,126.0,99.0,'11111222,11111222,11144222' 
ADCP,ioos:station:wmo:42369:1,2011-05-02T07:20:00Z,27.2070,-90.2830,60.4,10.5,126.0,99.0,'11111222,11111222,11144222' 
ADCP,ioos:station:wmo:42369:1,2011-05-02T07:40:00Z,27.2070,-90.2830,60.4,11.0,126.0,99.0,'11111222,11111222,11144222' 
ADCP,ioos:station:wmo:42369:1,2011-05-02T08:00:00Z,27.2070,-90.2830,60.4,11.0,128.0,99.0,'11111222,11111222,11144222' 
ADCP,ioos:station:wmo:42369:1,2011-05-02T08:20:00Z,27.2070,-90.2830,60.4,11.3,129.0,99.0,'11111222,11111222,11144222' 
ADCP,ioos:station:wmo:42369:1,2011-05-02T08:40:00Z,27.2070,-90.2830,60.4,9.9,130.0,99.0,'11111222,11111222,11144222' 
ADCP,ioos:station:wmo:42369:1,2011-05-02T09:00:00Z,27.2070,-90.2830,60.4,10.7,131.0,99.0,'11111222,11111222,11144222' 
ADCP,ioos:station:wmo:42369:1,2011-05-02T09:20:00Z,27.2070,-90.2830,60.4,11.5,131.0,99.0,'11111222,11111222,11144222' 
ADCP,ioos:station:wmo:42369:1,2011-05-02T09:40:00Z,27.2070,-90.2830,60.4,11.6,131.0,99.0,'11111222,11111222,11144222' 
ADCP,ioos:station:wmo:42369:1,2011-05-02T10:00:00Z,27.2070,-90.2830,60.4,9.6,133.0,99.0,'11111222,11111222,11144222' 
ADCP,ioos:station:wmo:42369:1,2011-05-02T10:20:00Z,27.2070,-90.2830,60.4,8.3,136.0,99.0,'11111222,11111222,11144222' 
ADCP,ioos:station:wmo:42369:1,2011-05-02T10:40:00Z,27.2070,-90.2830,60.4,5.8,142.0,99.0,'11111222,11111222,11144222' 
ADCP,ioos:station:wmo:42369:1,2011-05-02T11:00:00Z,27.2070,-90.2830,60.4,5.4,144.0,99.0,'11111222,11111222,11144222' 
ADCP,ioos:station:wmo:42369:1,2011-05-02T11:20:00Z,27.2070,-90.2830,60.4,10.0,133.0,99.0,'11111222,11111222,11144222' 
ADCP,ioos:station:wmo:42369:1,2011-05-02T11:40:00Z,27.2070,-90.2830,60.4,9.3,134.0,99.0,'11111222,11111222,11144222' 
ADCP,ioos:station:wmo:42369:1,2011-05-02T12:00:00Z,27.2070,-90.2830,60.4,9.6,133.0,99.0,'11111222,11111222,11144222' 
ADCP,ioos:station:wmo:42369:1,2011-05-02T12:20:00Z,27.2070,-90.2830,60.4,7.8,136.0,99.0,'11111222,11111222,11144222' 
ADCP,ioos:station:wmo:42369:1,2011-05-02T12:40:00Z,27.2070,-90.2830,60.4,9.5,132.0,99.0,'11111222,11111222,11144222' 
ADCP,ioos:station:wmo:42369:1,2011-05-02T13:00:00Z,27.2070,-90.2830,60.4,6.2,138.0,99.0,'11111222,11111222,11144222' 
ADCP,ioos:station:wmo:42369:1,2011-05-02T13:20:00Z,27.2070,-90.2830,60.4,5.4,141.0,99.0,'11111222,11111222,11144222' 
ADCP,ioos:station:wmo:42369:1,2011-05-02T13:40:00Z,27.2070,-90.2830,60.4,3.8,150.0,99.0,'11111222,11111222,11144222' 
ADCP,ioos:station:wmo:42369:1,2011-05-02T14:00:00Z,27.2070,-90.2830,60.4,3.6,151.0,99.0,'11111222,11111222,11144222' 
ADCP,ioos:station:wmo:42369:1,2011-05-02T14:20:00Z,27.2070,-90.2830,60.4,3.8,146.0,99.0,'11111222,11111222,11144222' 
ADCP,ioos:station:wmo:42369:1,2011-05-02T14:40:00Z,27.2070,-90.2830,60.4,3.8,148.0,99.0,'11111222,11111222,11144222' 
ADCP,ioos:station:wmo:42369:1,2011-05-02T15:00:00Z,27.2070,-90.2830,60.4,3.4,150.0,99.0,'11111222,11111222,11144222' 
ADCP,ioos:station:wmo:42369:1,2011-05-02T15:20:00Z,27.2070,-90.2830,60.4,3.2,150.0,99.0,'11111222,11111222,11144222' 
ADCP,ioos:station:wmo:42369:1,2011-05-02T15:40:00Z,27.2070,-90.2830,60.4,3.1,152.0,99.0,'11111222,11111222,11144222' 
ADCP,ioos:station:wmo:42369:1,2011-05-02T16:00:00Z,27.2070,-90.2830,60.4,3.1,150.0,99.0,'11111222,11111222,11144222' 
ADCP,ioos:station:wmo:42369:1,2011-05-02T16:20:00Z,27.2070,-90.2830,60.4,3.0,150.0,99.0,'11111222,11111222,11144222' 
ADCP,ioos:station:wmo:42369:1,2011-05-02T16:40:00Z,27.2070,-90.2830,60.4,2.8,149.0,99.0,'11111222,11111222,11144222' 
ADCP,ioos:station:wmo:42369:1,2011-05-02T17:00:00Z,27.2070,-90.2830,60.4,3.8,131.0,99.0,'11111222,11111222,11144222' 
ADCP,ioos:station:wmo:42369:1,2011-05-02T17:20:00Z,27.2070,-90.2830,60.4,4.8,133.0,99.0,'11111222,11111222,11144222' 
ADCP,ioos:station:wmo:42369:1,2011-05-02T17:40:00Z,27.2070,-90.2830,60.4,5.4,134.0,99.0,'11111222,11111222,11144222' 
ADCP,ioos:station:wmo:42369:1,2011-05-02T18:00:00Z,27.2070,-90.2830,60.4,6.2,130.0,99.0,'11111222,11111222,11144222' 
ADCP,ioos:station:wmo:42369:1,2011-05-02T18:20:00Z,27.2070,-90.2830,60.4,6.3,129.0,99.0,'11111222,11111222,11144222' 
ADCP,ioos:station:wmo:42369:1,2011-05-02T18:40:00Z,27.2070,-90.2830,60.4,6.5,130.0,99.0,'11111222,11111222,11144222' 
ADCP,ioos:station:wmo:42369:1,2011-05-02T19:00:00Z,27.2070,-90.2830,60.4,6.3,129.0,99.0,'11111222,11111222,11144222' 
ADCP,ioos:station:wmo:42369:1,2011-05-02T19:20:00Z,27.2070,-90.2830,60.4,6.0,129.0,99.0,'11111222,11111222,11144222' 
ADCP,ioos:station:wmo:42369:1,2011-05-02T19:40:00Z,27.2070,-90.2830,60.4,5.8,126.0,99.0,'11111222,11111222,11144222' 
ADCP,ioos:station:wmo:42369:1,2011-05-02T20:00:00Z,27.2070,-90.2830,60.4,4.8,119.0,99.0,'11111222,11111222,11144222' 
ADCP,ioos:station:wmo:42369:1,2011-05-02T20:20:00Z,27.2070,-90.2830,60.4,4.1,113.0,99.0,'11111222,11111222,11144222' 
ADCP,ioos:station:wmo:42369:1,2011-05-02T20:40:00Z,27.2070,-90.2830,60.4,4.3,115.0,99.0,'11111222,11111222,11144222' 
ADCP,ioos:station:wmo:42369:1,2011-05-02T21:00:00Z,27.2070,-90.2830,60.4,4.6,122.0,99.0,'11111222,11111222,11144222' 
ADCP,ioos:station:wmo:42369:1,2011-05-02T21:20:00Z,27.2070,-90.2830,60.4,4.4,116.0,99.0,'11111222,11111222,11144222' 
ADCP,ioos:station:wmo:42369:1,2011-05-02T21:40:00Z,27.2070,-90.2830,60.4,4.9,110.0,99.0,'11111222,11111222,11144222' 
ADCP,ioos:station:wmo:42369:1,2011-05-02T22:00:00Z,27.2070,-90.2830,60.4,5.2,108.0,99.0,'11111222,11111222,11144222' 
ADCP,ioos:station:wmo:42369:1,2011-05-02T22:20:00Z,27.2070,-90.2830,60.4,5.3,108.0,99.0,'11111222,11111222,11144222' 
ADCP,ioos:station:wmo:42369:1,2011-05-02T23:00:00Z,27.2070,-90.2830,60.4,5.8,107.0,99.0,'11111222,11111222,11144222' 
ADCP,ioos:station:wmo:42369:1,2011-05-02T23:20:00Z,27.2070,-90.2830,60.4,5.9,108.0,99.0,'11111222,11111222,11144222' 
ADCP,ioos:station:wmo:42369:1,2011-05-02T23:40:00Z,27.2070,-90.2830,60.4,5.7,111.0,99.0,'11111222,11111222,11144222' 
ADCP,ioos:station:wmo:42369:1,2011-05-03T00:00:00Z,27.2070,-90.2830,60.4,5.6,114.0,99.0,'11111222,11111222,11144222' 
ADCP,ioos:station:wmo:42369:1,2011-05-03T00:20:00Z,27.2070,-90.2830,60.4,5.6,116.0,99.0,'11111222,11111222,11144222' 
ADCP,ioos:station:wmo:42369:1,2011-05-03T00:40:00Z,27.2070,-90.2830,60.4,5.6,116.0,99.0,'11111222,11111222,11144222' 
ADCP,ioos:station:wmo:42369:1,2011-05-03T01:00:00Z,27.2070,-90.2830,60.4,5.3,115.0,99.0,'11111222,11111222,11144222' 
ADCP,ioos:station:wmo:42369:1,2011-05-03T01:20:00Z,27.2070,-90.2830,60.4,5.2,113.0,99.0,'11111222,11111222,11144222' 
ADCP,ioos:station:wmo:42369:1,2011-05-03T01:40:00Z,27.2070,-90.2830,60.4,5.6,118.0,99.0,'11111222,11111222,11144222' 
ADCP,ioos:station:wmo:42369:1,2011-05-03T02:00:00Z,27.2070,-90.2830,60.4,6.6,124.0,99.0,'11111222,11111222,11144222' 
ADCP,ioos:station:wmo:42369:1,2011-05-03T02:20:00Z,27.2070,-90.2830,60.4,6.3,123.0,99.0,'11111222,11111222,11144222' 
ADCP,ioos:station:wmo:42369:1,2011-05-03T02:40:00Z,27.2070,-90.2830,60.4,5.8,121.0,99.0,'11111222,11111222,11144222' 
ADCP,ioos:station:wmo:42369:1,2011-05-03T03:00:00Z,27.2070,-90.2830,60.4,6.4,123.0,99.0,'11111222,11111222,11144222' 
ADCP,ioos:station:wmo:42369:1,2011-05-03T03:20:00Z,27.2070,-90.2830,60.4,6.0,123.0,99.0,'11111222,11111222,11144222' 
ADCP,ioos:station:wmo:42369:1,2011-05-03T04:00:00Z,27.2070,-90.2830,60.4,5.8,124.0,99.0,'11111222,11111222,11144222' 
ADCP,ioos:station:wmo:42369:1,2011-05-03T04:20:00Z,27.2070,-90.2830,60.4,6.1,125.0,99.0,'11111222,11111222,11144222' 
ADCP,ioos:station:wmo:42369:1,2011-05-03T04:40:00Z,27.2070,-90.2830,60.4,5.1,121.0,99.0,'11111222,11111222,11144222' 
ADCP,ioos:station:wmo:42369:1,2011-05-03T05:00:00Z,27.2070,-90.2830,60.4,4.8,121.0,99.0,'11111222,11111222,11144222' 
ADCP,ioos:station:wmo:42369:1,2011-05-03T05:20:00Z,27.2070,-90.2830,60.4,5.7,127.0,99.0,'11111222,11111222,11144222' 
ADCP,ioos:station:wmo:42369:1,2011-05-03T05:40:00Z,27.2070,-90.2830,60.4,5.5,125.0,99.0,'11111222,11111222,11144222' 
ADCP,ioos:station:wmo:42369:1,2011-05-03T06:00:00Z,27.2070,-90.2830,60.4,5.7,125.0,99.0,'11111222,11111222,11144222' 
ADCP,ioos:station:wmo:42369:1,2011-05-03T06:20:00Z,27.2070,-90.2830,60.4,6.4,129.0,99.0,'11111222,11111222,11144222' 
ADCP,ioos:station:wmo:42369:1,2011-05-03T06:40:00Z,27.2070,-90.2830,60.4,6.9,129.0,99.0,'11111222,11111222,11144222' 
ADCP,ioos:station:wmo:42369:1,2011-05-03T07:00:00Z,27.2070,-90.2830,60.4,6.8,130.0,99.0,'11111222,11111222,11144222' 
ADCP,ioos:station:wmo:42369:1,2011-05-03T07:20:00Z,27.2070,-90.2830,60.4,6.2,133.0,99.0,'11111222,11111222,11144222' 
ADCP,ioos:station:wmo:42369:1,2011-05-03T07:40:00Z,27.2070,-90.2830,60.4,3.9,136.0,99.0,'11111222,11111222,11144222' 
ADCP,ioos:station:wmo:42369:1,2011-05-03T08:00:00Z,27.2070,-90.2830,60.4,2.9,142.0,99.0,'11111222,11111222,11144222' 
ADCP,ioos:station:wmo:42369:1,2011-05-03T08:20:00Z,27.2070,-90.2830,60.4,2.7,145.0,99.0,'11111222,11111222,11144222' 
ADCP,ioos:station:wmo:42369:1,2011-05-03T08:40:00Z,27.2070,-90.2830,60.4,2.4,149.0,99.0,'11111222,11111222,11144222' 
ADCP,ioos:station:wmo:42369:1,2011-05-03T09:00:00Z,27.2070,-90.2830,60.4,2.6,152.0,99.0,'11111222,11111222,11144222' 
ADCP,ioos:station:wmo:42369:1,2011-05-03T09:20:00Z,27.2070,-90.2830,60.4,2.4,152.0,99.0,'11111222,11111222,11144222' 
ADCP,ioos:station:wmo:42369:1,2011-05-03T09:40:00Z,27.2070,-90.2830,60.4,2.6,151.0,99.0,'11111222,11111222,11144222' 
ADCP,ioos:station:wmo:42369:1,2011-05-03T10:00:00Z,27.2070,-90.2830,60.4,2.7,149.0,99.0,'11111222,11111222,11144222' 
ADCP,ioos:station:wmo:42369:1,2011-05-03T10:20:00Z,27.2070,-90.2830,60.4,3.0,141.0,99.0,'11111222,11111222,11144222' 
ADCP,ioos:station:wmo:42369:1,2011-05-03T10:40:00Z,27.2070,-90.2830,60.4,2.6,149.0,99.0,'11111222,11111222,11144222' 
ADCP,ioos:station:wmo:42369:1,2011-05-03T11:00:00Z,27.2070,-90.2830,60.4,2.6,149.0,99.0,'11111222,11111222,11144222' 
ADCP,ioos:station:wmo:42369:1,2011-05-03T11:20:00Z,27.2070,-90.2830,60.4,2.6,151.0,99.0,'11111222,11111222,11144222' 
ADCP,ioos:station:wmo:42369:1,2011-05-03T11:40:00Z,27.2070,-90.2830,60.4,2.4,150.0,99.0,'11111222,11111222,11144222' 
ADCP,ioos:station:wmo:42369:1,2011-05-03T12:00:00Z,27.2070,-90.2830,60.4,2.3,148.0,99.0,'11111222,11111222,11144222' 
ADCP,ioos:station:wmo:42369:1,2011-05-03T12:20:00Z,27.2070,-90.2830,60.4,2.5,153.0,99.0,'11111222,11111222,11144222' 
ADCP,ioos:station:wmo:42369:1,2011-05-03T12:40:00Z,27.2070,-90.2830,60.4,2.5,154.0,99.0,'11111222,11111222,11144222' 
ADCP,ioos:station:wmo:42369:1,2011-05-03T13:00:00Z,27.2070,-90.2830,60.4,2.4,158.0,99.0,'11111222,11111222,11144222' 
ADCP,ioos:station:wmo:42369:1,2011-05-03T13:20:00Z,27.2070,-90.2830,60.4,2.8,161.0,99.0,'11111222,11111222,11144222' 
ADCP,ioos:station:wmo:42369:1,2011-05-03T13:40:00Z,27.2070,-90.2830,60.4,3.4,167.0,99.0,'11111222,11111222,11144222' 
ADCP,ioos:station:wmo:42369:1,2011-05-03T14:00:00Z,27.2070,-90.2830,60.4,3.1,181.0,99.0,'11111222,11111222,11144222' 
ADCP,ioos:station:wmo:42369:1,2011-05-03T14:20:00Z,27.2070,-90.2830,60.4,2.9,190.0,99.0,'11111222,11111222,11144222' 
ADCP,ioos:station:wmo:42369:1,2011-05-03T14:40:00Z,27.2070,-90.2830,60.4,2.9,192.0,99.0,'11111222,11111222,11144222' 
ADCP,ioos:station:wmo:42369:1,2011-05-03T15:00:00Z,27.2070,-90.2830,60.4,3.4,184.0,99.0,'11111222,11111222,11144222' 
ADCP,ioos:station:wmo:42369:1,2011-05-03T15:20:00Z,27.2070,-90.2830,60.4,3.9,176.0,99.0,'11111222,11111222,11144222' 
ADCP,ioos:station:wmo:42369:1,2011-05-03T16:00:00Z,27.2070,-90.2830,60.4,3.6,180.0,99.0,'11111222,11111222,11144222' 
ADCP,ioos:station:wmo:42369:1,2011-05-03T16:20:00Z,27.2070,-90.2830,60.4,3.5,185.0,99.0,'11111222,11111222,11144222' 
ADCP,ioos:station:wmo:42369:1,2011-05-03T16:40:00Z,27.2070,-90.2830,60.4,3.7,197.0,99.0,'11111222,11111222,11144222' 
ADCP,ioos:station:wmo:42369:1,2011-05-03T17:00:00Z,27.2070,-90.2830,60.4,5.9,259.0,99.0,'11111222,11111222,11144222' 
ADCP,ioos:station:wmo:42369:1,2011-05-03T17:20:00Z,27.2070,-90.2830,60.4,5.0,269.0,99.0,'11111222,11111222,11144222' 
ADCP,ioos:station:wmo:42369:1,2011-05-03T17:40:00Z,27.2070,-90.2830,60.4,3.6,258.0,99.0,'11111222,11111222,11144222' 
ADCP,ioos:station:wmo:42369:1,2011-05-03T18:00:00Z,27.2070,-90.2830,60.4,3.1,246.0,99.0,'11111222,11111222,11144222' 
ADCP,ioos:station:wmo:42369:1,2011-05-03T18:20:00Z,27.2070,-90.2830,60.4,4.0,210.0,99.0,'11111222,11111222,11144222' 
ADCP,ioos:station:wmo:42369:1,2011-05-03T18:40:00Z,27.2070,-90.2830,60.4,4.7,202.0,99.0,'11111222,11111222,11144222' 
ADCP,ioos:station:wmo:42369:1,2011-05-03T19:00:00Z,27.2070,-90.2830,60.4,3.4,199.0,99.0,'11111222,11111222,11144222' 
ADCP,ioos:station:wmo:42369:1,2011-05-03T19:20:00Z,27.2070,-90.2830,60.4,2.1,204.0,99.0,'11111222,11111222,11144222' 
ADCP,ioos:station:wmo:42369:1,2011-05-03T19:40:00Z,27.2070,-90.2830,60.4,1.5,212.0,99.0,'11111222,11111222,11144222' 
ADCP,ioos:station:wmo:42369:1,2011-05-03T20:00:00Z,27.2070,-90.2830,60.4,1.9,224.0,99.0,'11111222,11111222,11144222' 
ADCP,ioos:station:wmo:42369:1,2011-05-03T20:20:00Z,27.2070,-90.2830,60.4,1.9,250.0,99.0,'11111222,11111222,11144222' 